WetterOnline ( https://www.wetteronline.ch )

Wetter aktuell Bad Salzuflen

Aktuelles Wetter: Bad Salzuflen (139m)

6-stündlich | Neueste Meldungen
Ortszeit Temperatur Wetter
Mo, 13.07. 20:00 22.2° C wolkig
Mo, 13.07. 14:00 22.5° C fast wolkenlos
Mo, 13.07. 8:00 13.0° C bewölkt
Mo, 13.07. 2:00 10.9° C fast wolkenlos
So, 12.07. 20:00 18.5° C fast wolkenlos
So, 12.07. 14:00 17.9° C wolkig
So, 12.07. 8:00 10.0° C Nebel
So, 12.07. 2:00 10.0° C wolkenlos
Ortszeit Temperatur Wetter
Mo, 13.07. 20:00 22.2° C wolkig
Mo, 13.07. 19:40 22.9° C leicht bewölkt
Mo, 13.07. 19:30 23.4° C wolkenlos
Mo, 13.07. 19:20 23.4° C wolkenlos
Mo, 13.07. 19:10 24.3° C fast wolkenlos
Mo, 13.07. 19:00 23.7° C leicht bewölkt
Mo, 13.07. 18:50 23.7° C leicht bewölkt
Mo, 13.07. 18:30 23.6° C wolkig
Mo, 13.07. 18:00 23.9° C wolkig
Ortszeit Relative Feuchte Sichtweite
Mo, 13.07. 20:00 46% 65 km
Mo, 13.07. 14:00 45% 55 km
Mo, 13.07. 8:00 77% 60 km
Mo, 13.07. 2:00 82% >70 km
So, 12.07. 20:00 47% >70 km
So, 12.07. 14:00 52% 55 km
So, 12.07. 8:00 97% 0.2 km
So, 12.07. 2:00 95% 11 km
Ortszeit Relative Feuchte Sichtweite
Mo, 13.07. 20:00 46% 65 km
Mo, 13.07. 19:40 41% -
Mo, 13.07. 19:30 36% 55 km
Mo, 13.07. 19:20 36% -
Mo, 13.07. 19:10 39% -
Mo, 13.07. 19:00 37% >70 km
Mo, 13.07. 18:50 37% -
Mo, 13.07. 18:30 35% 60 km
Mo, 13.07. 18:00 37% 55 km
Ortszeit Niederschlagsmenge Niederschlagsart
Mo, 13.07. 20:00 0.0 l/m2 in 12 Std. -
Mo, 13.07. 14:00 0.0 l/m2 in 6 Std. -
Mo, 13.07. 8:00 0.0 l/m2 in 12 Std. -
Mo, 13.07. 2:00 0.0 l/m2 in 6 Std. -
So, 12.07. 20:00 0.0 l/m2 in 12 Std. -
So, 12.07. 14:00 0.0 l/m2 in 6 Std. -
So, 12.07. 8:00 0.1 l/m2 in 12 Std. -
So, 12.07. 2:00 0.1 l/m2 in 6 Std. Regen
Ortszeit Niederschlagsmenge Niederschlagsart
Mo, 13.07. 20:00 0.0 l/m2 in 1 Std. -
Mo, 13.07. 19:40 keine Meldung -
Mo, 13.07. 19:30 0.0 l/m2 in 1 Std. -
Mo, 13.07. 19:20 keine Meldung -
Mo, 13.07. 19:10 keine Meldung -
Mo, 13.07. 19:00 0.0 l/m2 in 1 Std. -
Mo, 13.07. 18:50 keine Meldung -
Mo, 13.07. 18:30 0.0 l/m2 in 1 Std. -
Mo, 13.07. 18:00 0.0 l/m2 in 1 Std. -
Ortszeit Stärke Spitze Richtung
km/h Bft. km/h Grad Sektor
Mo, 13.07. 20:00 4 1 22 360° N
Mo, 13.07. 14:00 4 1 22 170° S
Mo, 13.07. 8:00 4 1 7 180° S
Mo, 13.07. 2:00 6 1 11 360° N
So, 12.07. 20:00 7 2 18 360° N
So, 12.07. 14:00 11 2 22 330° NW
So, 12.07. 8:00 4 1 7 170° S
So, 12.07. 2:00 0 0 7 - -
Ortszeit Stärke Spitze Richtung
km/h Bft. km/h Grad Sektor
Mo, 13.07. 20:00 4 1 11 360° N
Mo, 13.07. 19:40 4 1 - 360° N
Mo, 13.07. 19:30 2 1 7 290° W
Mo, 13.07. 19:20 2 1 - 290° W
Mo, 13.07. 19:10 4 1 - 290° W
Mo, 13.07. 19:00 4 1 14 70° O
Mo, 13.07. 18:50 4 1 - 70° O
Mo, 13.07. 18:30 4 1 14 280° W
Mo, 13.07. 18:00 6 1 15 250° W
Ortszeit Untergrenze Bedeckung Gattung
total tief tief mittel hoch
Mo, 13.07. 20:00 10500 m 8/8 0/8 - - -
Mo, 13.07. 14:00 1500 m 1/8 1/8 - - -
Mo, 13.07. 8:00 6900 m 7/8 7/8 - - -
Mo, 13.07. 2:00 8700 m 2/8 0/8 - - -
So, 12.07. 20:00 9000 m 1/8 0/8 - - -
So, 12.07. 14:00 1800 m 5/8 5/8 - - -
So, 12.07. 8:00 <30 m 7/8 0/8 - - -
So, 12.07. 2:00 - 0/8 0/8 - - -
Ortszeit Bedeckungsgrad in Achtel und Wolkenuntergrenze
Mo, 13.07. 20:00 8(10500m)
Mo, 13.07. 19:40 6(10500m) 6(10500m)
Mo, 13.07. 19:30 4(10500m)
Mo, 13.07. 19:20 keine Wolken
Mo, 13.07. 19:10 1(6900m)
Mo, 13.07. 19:00 3(6900m)
Mo, 13.07. 18:50 3(6900m)
Mo, 13.07. 18:30 7(10500m)
Mo, 13.07. 18:00 7(10500m)
Ortszeit Luftdruck NN (hPa) Tendenz (hPa in 3 Std.)
Mo, 13.07. 20:00 1019 - 1,6
Mo, 13.07. 14:00 1023 - 1,7
Mo, 13.07. 8:00 1026 - 0,4
Mo, 13.07. 2:00 1027 - 0,6
So, 12.07. 20:00 1027 - 0,6
So, 12.07. 14:00 1028 - 0,1
So, 12.07. 8:00 1028 + 1,1
So, 12.07. 2:00 1027 + 0,5
Ortszeit Luftdruck NN (hPa) Tendenz (hPa in 3 Std.)
Mo, 13.07. 20:00 1019 - 1,6
Mo, 13.07. 19:40 1019 keine Meldung
Mo, 13.07. 19:30 1019 - 1,7
Mo, 13.07. 19:20 1019 keine Meldung
Mo, 13.07. 19:10 1019 keine Meldung
Mo, 13.07. 19:00 1019 - 1,7
Mo, 13.07. 18:50 1019 keine Meldung
Mo, 13.07. 18:30 1020 - 1,6
Mo, 13.07. 18:00 1020 - 1,7
Ortszeit Schneehöhe (cm)
Mo, 13.07. 20:00 -
Mo, 13.07. 14:00 -
Mo, 13.07. 8:00 -
Mo, 13.07. 2:00 -
So, 12.07. 20:00 -
So, 12.07. 14:00 -
So, 12.07. 8:00 -
So, 12.07. 2:00 -
Ortszeit Schneehöhe (cm)
Mo, 13.07. 20:00 -
Mo, 13.07. 19:40 -
Mo, 13.07. 19:30 -
Mo, 13.07. 19:20 -
Mo, 13.07. 19:10 -
Mo, 13.07. 19:00 -
Mo, 13.07. 18:50 -
Mo, 13.07. 18:30 -
Mo, 13.07. 18:00 -
Link zu dieser Seite / Seite empfehlen

Das Wetter in ...